Back to catalog

STARLINK-34604

AliveCommunicationsVLEO
NORAD 64801·PAYLOAD·🇺🇸 United States

Launched Jul 16, 2025 from Vandenberg Space Force Base

Loading…

Next Passes (next 24 hours)

TLE

FreshSource: CelesTrak SupGP

Epoch: Sep 14, 2026, 20:57 UTC

1 64801C 25150M   26257.87340278 -.00022523  00000+0 -18876-2 0  2577
2 64801  70.0025  17.4660 0003243 273.3499 115.1354 14.98338687    16

Track STARLINK-34604 in real time with AllMySat

Download on the App Store